Tracking 35275 objects as of 9-Sep-2026
HD Live streaming from Space Station
objects crossing your sky now

STARLINK-5053

Track STARLINK-5053 now!
10-day predictions
STARLINK-5053 is classified as:


NORAD ID: 53913
Int'l Code: 2022-119AD
Launch date: September 24, 2022
Source: United States (US)
Launch site: AIR FORCE EASTERN TEST RANGE (AFETR)
Your satellite tracking list
Your tracking list is empty




NASA's NSSDC Master Catalog

Two Line Element Set (TLE):
1 53913U 22119AD  26251.56901901  .00000344  00000-0  39724-4 0  9993
2 53913  53.1597 212.5362 0001387  73.7043 286.4101 15.08837192219432
Source of the keplerian elements: AFSPC